Date String (YYYY-MM-DD hh:mm:ss) UTC,Instrument flags,Ambient pressure (hPa),Sample flow (lpm),Bypass flow (lpm),Sample temperature (°C),Ambient temperature (°C),ASC tube jacket temperature (°C),LED temperature (°C),Box temperature (°C),Sample RH (%),Span deviation,Mass concentration (μg/m³),Mass concentration (μg/m³),Mass concentration (μg/m³)
DateTimeUTC,F1_M11,P_M11,Q1_M11,Q2_M11,T1_M11,T2_M11,T3_M11,T4_M11,T5_M11,U1_M11,ZSPAN_M11,X2_M11,X0_M11,X1_M11
2022-12-04 07:00:00,,0829.5,5.00,0.00,22.1,20.8,00.0,31.0,23.9,12.6,0000.0,0007.35,0024.32,0005.28
2022-12-04 07:01:00,,0829.4,5.00,0.00,22.1,20.8,00.0,31.0,24.0,12.6,0000.0,0007.34,0024.68,0005.28
2022-12-04 07:02:00,,0829.4,5.00,0.00,22.1,20.8,00.0,31.0,24.0,12.8,0000.0,0007.21,0023.84,0005.28
2022-12-04 07:03:00,,0829.5,5.00,0.00,22.1,20.8,00.0,31.0,24.0,13.0,0000.0,0007.25,0022.99,0005.28
2022-12-04 07:04:00,,0829.5,5.00,0.00,22.1,20.8,00.0,31.0,24.0,13.1,0000.0,0007.24,0022.69,0005.28
2022-12-04 07:05:00,,0829.6,5.00,0.00,22.1,20.8,00.0,31.0,23.9,12.8,0000.0,0007.29,0022.27,0005.28
2022-12-04 07:06:00,,0829.8,5.00,0.00,22.1,20.8,00.0,31.0,24.0,12.6,0000.0,0007.33,0021.66,0005.29
2022-12-04 07:07:00,,0829.8,5.00,0.00,22.1,20.8,00.0,31.0,23.9,12.9,0000.0,0007.32,0021.30,0005.30
2022-12-04 07:08:00,,0829.6,5.01,0.00,22.1,20.8,00.0,31.0,23.9,13.5,0000.0,0007.34,0020.95,0005.31
2022-12-04 07:09:00,,0829.6,5.00,0.00,22.1,20.7,00.0,31.0,23.9,13.4,0000.0,0007.47,0022.42,0005.33
2022-12-04 07:10:00,,0829.5,5.00,0.00,22.0,20.7,00.0,31.0,23.9,13.4,0000.0,0007.46,0022.08,0005.32
2022-12-04 07:11:00,,0829.5,5.00,0.00,22.1,20.7,00.0,31.0,23.9,14.0,0000.0,0007.45,0021.78,0005.29
2022-12-04 07:12:00,,0829.5,5.00,0.00,22.0,20.7,00.0,31.0,23.9,14.0,0000.0,0007.49,0022.12,0005.26
2022-12-04 07:13:00,,0829.5,5.00,0.00,22.0,20.7,00.0,31.0,23.9,13.9,0000.0,0007.65,0023.51,0005.26
2022-12-04 07:14:00,,0829.5,5.00,0.00,22.0,20.7,00.0,31.0,23.8,13.4,0000.0,0007.77,0024.71,0005.27
2022-12-04 07:15:00,,0829.4,5.00,0.00,22.1,21.0,00.0,30.9,24.0,13.2,0000.0,0007.81,0024.73,0005.28
2022-12-04 07:16:00,,0829.7,5.00,0.00,22.2,21.9,00.0,30.9,24.2,13.1,0000.0,0007.84,0023.88,0005.29
2022-12-04 07:17:00,,0829.6,4.99,0.00,22.3,22.4,00.0,31.0,24.4,13.3,0000.0,0007.88,0024.72,0005.28
2022-12-04 07:18:00,,0829.7,4.99,0.00,22.3,22.1,00.0,31.0,24.4,13.3,0000.0,0007.99,0025.18,0005.27
2022-12-04 07:19:00,,0829.5,5.00,0.00,22.3,21.8,00.0,31.1,24.3,13.0,0000.0,0008.03,0025.32,0005.27
2022-12-04 07:20:00,,0829.5,5.00,0.00,22.3,21.6,00.0,31.1,24.3,13.0,0000.0,0007.99,0023.31,0005.27
2022-12-04 07:21:00,,0829.5,5.01,0.00,22.3,21.5,00.0,31.1,24.2,12.8,0000.0,0008.10,0023.88,0005.28
2022-12-04 07:22:00,,0829.5,5.01,0.00,22.3,21.4,00.0,31.1,24.2,12.8,0000.0,0008.19,0025.82,0005.29
2022-12-04 07:23:00,,0829.5,4.99,0.00,22.3,21.3,00.0,31.1,24.2,12.7,0000.0,0008.26,0026.07,0005.30
2022-12-04 07:24:00,,0829.5,5.01,0.00,22.3,21.2,00.0,31.2,24.2,13.0,0000.0,0008.31,0026.80,0005.31
2022-12-04 07:25:00,,0829.5,5.01,0.00,22.3,21.2,00.0,31.2,24.2,13.0,0000.0,0008.29,0027.10,0005.31
2022-12-04 07:26:00,,0829.5,5.00,0.00,22.3,21.1,00.0,31.2,24.1,13.2,0000.0,0008.38,0027.72,0005.30
2022-12-04 07:27:00,,0829.5,5.00,0.00,22.3,21.0,00.0,31.2,24.1,12.7,0000.0,0008.38,0028.19,0005.26
2022-12-04 07:28:00,,0829.5,5.00,0.00,22.3,20.9,00.0,31.2,24.1,12.8,0000.0,0008.25,0026.71,0005.23
2022-12-04 07:29:00,,0829.5,5.00,0.00,22.3,20.9,00.0,31.2,24.1,12.7,0000.0,0008.08,0026.06,0005.20
2022-12-04 07:30:00,,0829.3,5.02,0.00,22.3,20.9,00.0,31.2,24.1,12.5,0000.0,0008.04,0026.24,0005.16
2022-12-04 07:31:00,,0829.1,5.00,0.00,22.2,20.9,00.0,31.2,24.1,12.6,0000.0,0007.94,0027.60,0005.10
2022-12-04 07:32:00,,0829.1,4.99,0.00,22.2,20.9,00.0,31.1,24.1,12.6,0000.0,0007.76,0027.06,0005.02
2022-12-04 07:33:00,,0829.4,4.99,0.00,22.2,20.9,00.0,31.1,24.0,12.0,0000.0,0007.61,0026.29,0004.94
2022-12-04 07:34:00,,0829.2,5.01,0.00,22.2,20.9,00.0,31.1,24.0,12.3,0000.0,0007.49,0026.04,0004.90
2022-12-04 07:35:00,,0829.3,5.01,0.00,22.2,20.8,00.0,31.1,24.0,12.2,0000.0,0007.34,0024.45,0004.84
2022-12-04 07:36:00,,0829.5,5.00,0.00,22.2,20.8,00.0,31.1,23.9,13.0,0000.0,0007.37,0024.05,0004.82
2022-12-04 07:37:00,,0829.6,4.98,0.00,22.1,20.8,00.0,31.1,23.8,12.8,0000.0,0007.37,0024.37,0004.80
2022-12-04 07:38:00,,0829.6,5.00,0.00,22.1,20.8,00.0,31.1,23.8,12.7,0000.0,0007.50,0025.02,0004.78
2022-12-04 07:39:00,,0829.5,5.01,0.00,22.1,20.7,00.0,31.1,23.8,12.0,0000.0,0007.59,0026.02,0004.76
2022-12-04 07:40:00,,0829.4,5.01,0.00,22.1,20.7,00.0,31.1,23.9,11.3,0000.0,0007.54,0025.84,0004.70
2022-12-04 07:41:00,,0829.3,5.00,0.00,22.1,20.8,00.0,31.1,23.9,11.2,0000.0,0007.42,0025.91,0004.61
2022-12-04 07:42:00,,0829.2,4.99,0.00,22.1,20.8,00.0,31.1,23.9,12.3,0000.0,0007.36,0025.17,0004.56
2022-12-04 07:43:00,,0829.2,4.99,0.00,22.1,20.8,00.0,31.1,23.9,12.2,0000.0,0007.26,0025.37,0004.52
2022-12-04 07:44:00,,0829.3,4.99,0.00,22.1,20.8,00.0,31.1,24.0,11.6,0000.0,0007.23,0024.56,0004.49
2022-12-04 07:45:00,,0829.4,4.99,0.00,22.1,20.8,00.0,31.1,24.0,11.3,0000.0,0007.10,0023.59,0004.44
2022-12-04 07:46:00,,0829.5,5.00,0.00,22.1,20.8,00.0,31.1,24.0,11.8,0000.0,0007.02,0023.92,0004.39
2022-12-04 07:47:00,,0829.5,5.00,0.00,22.1,20.8,00.0,31.1,23.9,12.5,0000.0,0006.95,0023.69,0004.35
2022-12-04 07:48:00,,0829.4,5.00,0.00,22.1,20.8,00.0,31.1,23.9,12.1,0000.0,0006.80,0022.96,0004.31
2022-12-04 07:49:00,,0829.3,5.00,0.00,22.1,20.7,00.0,31.0,23.8,12.8,0000.0,0006.52,0022.16,0004.26
2022-12-04 07:50:00,,0829.2,5.00,0.00,22.0,20.6,00.0,31.0,23.8,13.5,0000.0,0006.24,0021.15,0004.20
2022-12-04 07:51:00,,0829.3,5.00,0.00,22.0,20.6,00.0,31.0,23.8,13.6,0000.0,0006.09,0021.16,0004.16
2022-12-04 07:52:00,,0829.3,5.00,0.00,22.0,20.6,00.0,31.0,23.9,13.7,0000.0,0006.00,0020.13,0004.14
2022-12-04 07:53:00,,0829.2,5.00,0.00,22.1,21.0,00.0,31.0,24.0,13.7,0000.0,0005.82,0018.92,0004.08
2022-12-04 07:54:00,,0829.3,5.00,0.00,22.2,21.8,00.0,31.0,24.1,13.5,0000.0,0005.77,0017.74,0004.05
2022-12-04 07:55:00,,0829.4,5.00,0.00,22.2,22.1,00.0,31.0,24.3,13.5,0000.0,0005.73,0017.69,0004.02
2022-12-04 07:56:00,,0829.5,4.99,0.00,22.3,21.9,00.0,31.0,24.3,13.5,0000.0,0005.67,0017.87,0004.01
2022-12-04 07:57:00,,0829.5,5.00,0.00,22.3,21.7,00.0,31.1,24.2,13.5,0000.0,0005.56,0016.99,0003.99
2022-12-04 07:58:00,,0829.5,5.01,0.00,22.3,21.5,00.0,31.1,24.2,13.6,0000.0,0005.40,0016.25,0003.95
2022-12-04 07:59:00,,0829.5,5.00,0.00,22.3,21.4,00.0,31.1,24.2,13.8,0000.0,0005.38,0015.65,0003.94
